OBJECT BF, 60521

Orbit data source: Space-Track

You're viewing an Uncataloged Satellite

Recently launched and/or uncataloged satellites may have evolving metadata. Metadata may include but not limited to: Owner, Maufacturer, Bus, Motor, and Mission.

OBJECT BF, 60521 is a satellite in SSO that was launched on Fri, 16 Aug 2024 UTC via an FALCON 9 launch vehicle from the Air Force Western Test Range (AFWTR). Unknown objects in Earth's orbit typically refer to objects detected orbiting the Earth but have not yet been identified or cataloged. These objects could be anything from previously untracked satellites, spent rocket stages, debris from satellite collisions, or even natural meteoroids temporarily captured by Earth's gravity.

Loading next visibility...
Identifier
60521, 2024-149BF
Orbit
SSO
Country
Flag of TBDTBD
Related business
Flag of SESwedish Defence Research Agency (SE)
Manufacturer
FOI
Mission
Operational Defense Communications
Bus & Motor
CUBESAT 3U, Unknown motor
Mass
4 kg wet, 4 kg dry
Launch date (UTC)
2024-08-16 (1 year ago)
Launch vehicle
FALCON 9
Launch site
Air Force Western Test Range (AFWTR)
Object type
Unknown
Shape & HBR
Box, 0.1 m
Radar Cross Section
0.035 m², Medium (>0.1 m² and < 1m²)

Expand to show TLE details & history
Last TLE update: 1 day ago

TLE from 1 day ago
0 OBJECT BF
1 60521U 24149BF  25310.69041766  .00051502  00000-0  10874-2 0  9999
2 60521  97.4006  32.6452 0003553   6.9973 353.1325 15.45026229 68398
Epoch: 2025-11-06T16:34Z
TLE epoch observation values (Epoch: 2025-11-06T16:34:12.085Z)
Latitude
-0.00001°
Longitude
97.94973°
Altitude
432.023 km
Speed
7.654 km/s
True Right ascension
02h 10m 34s
True Declination
0° 00' 00"
Sunlit
Object was in full shadow at epoch
Visualization orbit readout
Latitude
Unknown
Longitude
Unknown
Altitude
Unknown
Speed
Unknown
Apparent Right ascension
Unknown
Apparent Declination
Unknown
Sunlit
N/A
Visualization observer readout
Local Sidereal Time
18:01:29
Azimuth
Unknown
Elevation
Unknown
Doppler factor
Unknown
Orbital elements
Apogee altitude
430.652 km
Perigee altitude
425.815 km
Semi-major axis
6,806.37 km
Eccentricity
0.00036
Inclination
97.4006°
RAAN
32.6452°
Arg. of periapsis
6.9973°
True anomaly
353.12763°
Mean anomaly
353.1325°
Eccentric anomaly
353.13006°
Mean motion
3.86518 °/min
Orbital period
93.14 mins
BSTAR
0.0010874
Loading maneuver chart data...
Computing Atmospheric mass density...
Loading historical data...
Loading historical data...
Loading historical data...
Loading historical data...
Loading historical data...
Loading historical data...
Loading historical data...

Documentation

Showing up to 5 results
|